Independence, KS

5:08 AM CDT on July 28, 2017 (GMT -0500)
Independence Municipal

Weather History for KIDP - November, 2012

Change the Weather History Date:

Friday, November 9, 2012

  Actual Average (KCFV) Record (KCFV)
Temperature  
Mean Temperature 66 °F -  
Max Temperature 77 °F 57 °F 86 °F (2006)
Min Temperature 55 °F 37 °F 28 °F (2000)
Cooling Degree Days 1    
Growing Degree Days 16 (Base 50)    
Moisture  
Dew Point 53 °F    
Average Humidity 66    
Maximum Humidity 88    
Minimum Humidity 50    
Precipitation  
Precipitation 0.00 in - - ()
Sea Level Pressure  
Sea Level Pressure 29.84 in    
Wind  
Wind Speed 20 mph (South)    
Max Wind Speed 30 mph    
Max Gust Speed 34 mph    
Visibility 10 miles    
Events      
Averages and records for this station are not official NWS values.
T = Trace of Precipitation, MM = Missing Value Source: NWS Daily Summary

Daily Weather History Graph

Daily Weather History Graph

Search for Another Location

Airport or City:

Trip Planner

Search our weather history database for the weather conditions in past years. The results will help you decide how hot, cold, wet, or windy it might be!

Date:

Astronomy

Nov. 09, 2012 Rise Set
Actual Time 6:56 AM CST 5:17 PM CST
Civil Twilight 6:28 AM CST 5:44 PM CST
Nautical Twilight 5:57 AM CST 6:15 PM CST
Astronomical Twilight 5:27 AM CST 6:46 PM CST
Moon 2:02 AM CST (11/9) 2:25 PM CST (11/9)
Length of Visible Light 11h 15m
Length of Day
10h 20m
Waning Crescent, 23% of the Moon is Illuminated
Nov 9
Waning Crescent
Nov 13
New
Nov 20
First Quarter
Nov 28
Full
Dec 6
Last Quarter

Hourly Weather History & Observations

Time (CST) Temp. Dew Point Humidity Pressure Visibility Wind Dir Wind Speed Gust Speed Precip Events Conditions
12:15 AM 59.0 °F 42.8 °F 55% 29.89 in 10.0 mi South 18.4 mph 25.3 mph N/A   Clear
12:35 AM 59.0 °F 42.8 °F 55% 29.89 in 10.0 mi South 18.4 mph 24.2 mph N/A   Clear
12:55 AM 59.0 °F 42.8 °F 55% 29.88 in 10.0 mi South 19.6 mph 24.2 mph N/A   Clear
1:15 AM 59.0 °F 44.6 °F 59% 29.88 in 10.0 mi South 16.1 mph 21.9 mph N/A   Clear
1:35 AM 59.0 °F 44.6 °F 59% 29.88 in 10.0 mi South 18.4 mph - N/A   Clear
1:55 AM 59.0 °F 44.6 °F 59% 29.88 in 10.0 mi South 18.4 mph 25.3 mph N/A   Clear
2:15 AM 59.0 °F 44.6 °F 59% 29.87 in 10.0 mi South 19.6 mph - N/A   Clear
2:35 AM 57.2 °F 44.6 °F 63% 29.87 in 10.0 mi South 20.7 mph 26.5 mph N/A   Clear
2:55 AM 57.2 °F 44.6 °F 63% 29.87 in 10.0 mi South 18.4 mph 25.3 mph N/A   Clear
3:15 AM 57.2 °F 44.6 °F 63% 29.87 in 10.0 mi South 17.3 mph 24.2 mph N/A   Clear
3:35 AM 55.4 °F 44.6 °F 67% 29.87 in 10.0 mi South 18.4 mph 26.5 mph N/A   Clear
3:55 AM 55.4 °F 44.6 °F 67% 29.87 in 10.0 mi South 18.4 mph - N/A   Clear
4:15 AM 55.4 °F 46.4 °F 72% 29.86 in 10.0 mi South 20.7 mph 25.3 mph N/A   Clear
4:35 AM 55.4 °F 46.4 °F 72% 29.86 in 10.0 mi South 20.7 mph 26.5 mph N/A   Clear
4:55 AM 55.4 °F 46.4 °F 72% 29.87 in 10.0 mi South 19.6 mph 23.0 mph N/A   Clear
5:15 AM 55.4 °F 46.4 °F 72% 29.87 in 10.0 mi South 17.3 mph 25.3 mph N/A   Clear
5:35 AM 55.4 °F 48.2 °F 77% 29.87 in 10.0 mi South 19.6 mph 24.2 mph N/A   Clear
5:55 AM 55.4 °F 48.2 °F 77% 29.87 in 10.0 mi South 17.3 mph 25.3 mph N/A   Clear
6:15 AM 55.4 °F 50.0 °F 82% 29.87 in 10.0 mi South 17.3 mph 23.0 mph N/A   Clear
6:35 AM 55.4 °F 50.0 °F 82% 29.87 in 10.0 mi South 18.4 mph 24.2 mph N/A   Clear
6:55 AM 55.4 °F 50.0 °F 82% 29.88 in 10.0 mi South 18.4 mph - N/A   Clear
7:15 AM 55.4 °F 50.0 °F 82% 29.88 in 10.0 mi South 19.6 mph - N/A   Clear
7:35 AM 55.4 °F 51.8 °F 88% 29.89 in 10.0 mi South 20.7 mph 25.3 mph N/A   Clear
7:55 AM 59.0 °F 51.8 °F 77% 29.89 in 10.0 mi South 19.6 mph 24.2 mph N/A   Clear
8:15 AM 59.0 °F 51.8 °F 77% 29.89 in 10.0 mi South 23.0 mph 27.6 mph N/A   Clear
8:35 AM 60.8 °F 53.6 °F 77% 29.90 in 10.0 mi South 21.9 mph 26.5 mph N/A   Clear
8:55 AM 60.8 °F 53.6 °F 77% 29.90 in 10.0 mi South 20.7 mph 27.6 mph N/A   Clear
9:15 AM 62.6 °F 53.6 °F 72% 29.90 in 10.0 mi South 19.6 mph 28.8 mph N/A   Clear
9:35 AM 64.4 °F 55.4 °F 73% 29.89 in 10.0 mi South 25.3 mph 32.2 mph N/A   Clear
9:55 AM 66.2 °F 55.4 °F 68% 29.89 in 10.0 mi South 25.3 mph 29.9 mph N/A   Clear
10:15 AM 66.2 °F 55.4 °F 68% 29.90 in 10.0 mi South 18.4 mph 29.9 mph N/A   Clear
10:35 AM 66.2 °F 57.2 °F 73% 29.89 in 10.0 mi South 24.2 mph 28.8 mph N/A   Clear
10:55 AM 69.8 °F 57.2 °F 64% 29.89 in 10.0 mi South 21.9 mph 32.2 mph N/A   Clear
11:15 AM 69.8 °F 57.2 °F 64% 29.88 in 10.0 mi South 25.3 mph 29.9 mph N/A   Clear
11:35 AM 71.6 °F 57.2 °F 60% 29.87 in 10.0 mi South 24.2 mph 33.4 mph N/A   Clear
11:55 AM 73.4 °F 57.2 °F 57% 29.85 in 10.0 mi South 26.5 mph 33.4 mph N/A   Clear
12:15 PM 73.4 °F 57.2 °F 57% 29.85 in 10.0 mi South 24.2 mph 33.4 mph N/A   Clear
12:35 PM 75.2 °F 57.2 °F 53% 29.83 in 10.0 mi South 26.5 mph 33.4 mph N/A   Clear
12:55 PM 77.0 °F 57.2 °F 50% 29.82 in 10.0 mi South 26.5 mph 33.4 mph N/A   Clear
1:15 PM 75.2 °F 57.2 °F 53% 29.81 in 10.0 mi South 24.2 mph 31.1 mph N/A   Clear
1:35 PM 75.2 °F 57.2 °F 53% 29.80 in 10.0 mi South 24.2 mph 32.2 mph N/A   Clear
1:55 PM 77.0 °F 57.2 °F 50% 29.80 in 10.0 mi South 26.5 mph 31.1 mph N/A   Clear
2:15 PM 77.0 °F 57.2 °F 50% 29.80 in 10.0 mi South 23.0 mph 31.1 mph N/A   Clear
2:35 PM 75.2 °F 57.2 °F 53% 29.79 in 10.0 mi South 29.9 mph 34.5 mph N/A   Clear
2:55 PM 75.2 °F 57.2 °F 53% 29.78 in 10.0 mi South 29.9 mph 34.5 mph N/A   Clear
3:15 PM 73.4 °F 57.2 °F 57% 29.79 in 10.0 mi South 26.5 mph 31.1 mph N/A   Clear
3:35 PM 73.4 °F 57.2 °F 57% 29.79 in 10.0 mi South 28.8 mph 32.2 mph N/A   Clear
3:55 PM 73.4 °F 59.0 °F 61% 29.79 in 10.0 mi South 23.0 mph 31.1 mph N/A   Clear
4:15 PM 71.6 °F 59.0 °F 64% 29.79 in 10.0 mi South 26.5 mph 34.5 mph N/A   Clear
4:35 PM 71.6 °F 59.0 °F 64% 29.79 in 10.0 mi South 23.0 mph 34.5 mph N/A   Clear
4:55 PM 71.6 °F 59.0 °F 64% 29.79 in 10.0 mi South 19.6 mph 29.9 mph N/A   Clear
5:15 PM 69.8 °F 59.0 °F 68% 29.80 in 10.0 mi South 13.8 mph 21.9 mph N/A   Clear
5:35 PM 69.8 °F 59.0 °F 68% 29.80 in 10.0 mi South 16.1 mph 20.7 mph N/A   Clear
5:55 PM 69.8 °F 59.0 °F 68% 29.80 in 10.0 mi SSE 13.8 mph - N/A   Clear
6:15 PM 69.8 °F 59.0 °F 68% 29.81 in 10.0 mi South 11.5 mph - N/A   Clear
6:35 PM 68.0 °F 59.0 °F 73% 29.81 in 10.0 mi South 12.7 mph - N/A   Scattered Clouds
6:55 PM 68.0 °F 59.0 °F 73% 29.81 in 10.0 mi South 12.7 mph - N/A   Mostly Cloudy
7:15 PM 68.0 °F 59.0 °F 73% 29.82 in 10.0 mi South 10.4 mph - N/A   Scattered Clouds
7:35 PM 68.0 °F 57.2 °F 68% 29.82 in 10.0 mi South 11.5 mph - N/A   Clear
7:55 PM 69.8 °F 57.2 °F 64% 29.82 in 10.0 mi South 12.7 mph - N/A   Clear
8:15 PM 68.0 °F 55.4 °F 64% 29.82 in 10.0 mi South 13.8 mph 18.4 mph N/A   Clear
8:35 PM 68.0 °F 55.4 °F 64% 29.82 in 10.0 mi South 17.3 mph - N/A   Clear
8:55 PM 68.0 °F 55.4 °F 64% 29.82 in 10.0 mi South 16.1 mph - N/A   Clear
9:15 PM 68.0 °F 55.4 °F 64% 29.82 in 10.0 mi South 19.6 mph 27.6 mph N/A   Clear
9:35 PM 68.0 °F 55.4 °F 64% 29.82 in 10.0 mi South 20.7 mph 27.6 mph N/A   Clear
9:55 PM 68.0 °F 55.4 °F 64% 29.82 in 10.0 mi South 24.2 mph 29.9 mph N/A   Clear
10:15 PM 68.0 °F 57.2 °F 68% 29.82 in 10.0 mi South 20.7 mph 28.8 mph N/A   Clear
10:35 PM 68.0 °F 55.4 °F 64% 29.83 in 10.0 mi South 23.0 mph 29.9 mph N/A   Clear
10:55 PM 68.0 °F 55.4 °F 64% 29.83 in 10.0 mi South 19.6 mph 26.5 mph N/A   Clear
11:15 PM 68.0 °F 55.4 °F 64% 29.82 in 10.0 mi South 21.9 mph 27.6 mph N/A   Clear
11:35 PM 68.0 °F 55.4 °F 64% 29.83 in 10.0 mi South 21.9 mph 28.8 mph N/A   Clear
11:55 PM 68.0 °F 55.4 °F 64% 29.82 in 10.0 mi South 23.0 mph 26.5 mph N/A   Clear